Stündliche Wetter Abakaliki

Heute, 23 Juni, Mittwoch

Zeit Temperatur Niederschläge Wind Luftdruck Luftfeuchtigkeit
00:00 +25°C° 0 mm 2 m/S 753 mmHg 92%
01:00 +25°C° 0 mm 2 m/S 753 mmHg 94%
02:00 +25°C° 0.1 mm 2 m/S 753 mmHg 94%
03:00 +25°C° 0.1 mm 1 m/S 753 mmHg 95%
04:00 +24°C° 0.1 mm 1 m/S 752 mmHg 95%
05:00 +25°C° 0 mm 1 m/S 753 mmHg 95%
06:00 +25°C° 0 mm 1 m/S 753 mmHg 94%
07:00 +25°C° 0 mm 1 m/S 753 mmHg 94%
08:00 +25°C° 0 mm 1 m/S 754 mmHg 92%
09:00 +24°C° 0 mm 0 m/S 754 mmHg 90%
10:00 +24°C° 0 mm 0 m/S 754 mmHg 87%
11:00 +26°C° 0 mm 0 m/S 754 mmHg 81%
12:00 +29°C° 0 mm 1 m/S 753 mmHg 75%
13:00 +30°C° 0 mm 1 m/S 753 mmHg 68%
14:00 +30°C° 0.5 mm 1 m/S 752 mmHg 71%
15:00 +29°C° 0.5 mm 1 m/S 752 mmHg 75%
16:00 +29°C° 0.5 mm 1 m/S 751 mmHg 78%
17:00 +28°C° 0.2 mm 1 m/S 752 mmHg 81%
18:00 +27°C° 0.2 mm 1 m/S 752 mmHg 84%
19:00 +26°C° 0.2 mm 1 m/S 752 mmHg 88%
20:00 +26°C° 0 mm 2 m/S 752 mmHg 89%
21:00 +26°C° 0 mm 2 m/S 753 mmHg 91%
22:00 +25°C° 0 mm 3 m/S 753 mmHg 93%
23:00 +25°C° 0.1 mm 3 m/S 753 mmHg 94%

Morgen, 24 Juni, Donnerstag

Zeit Temperatur Niederschläge Wind Luftdruck Luftfeuchtigkeit
00:00 +25°C° 0.1 mm 2 m/S 753 mmHg 95%
01:00 +25°C° 0.1 mm 2 m/S 753 mmHg 96%
02:00 +24°C° 0.1 mm 2 m/S 753 mmHg 96%
03:00 +24°C° 0.1 mm 2 m/S 753 mmHg 97%
04:00 +24°C° 0.1 mm 2 m/S 753 mmHg 97%
05:00 +24°C° 0 mm 2 m/S 753 mmHg 96%
06:00 +24°C° 0 mm 1 m/S 753 mmHg 95%
07:00 +25°C° 0 mm 1 m/S 754 mmHg 94%
08:00 +26°C° 0 mm 1 m/S 754 mmHg 89%
09:00 +27°C° 0 mm 2 m/S 754 mmHg 83%
10:00 +28°C° 0 mm 2 m/S 754 mmHg 78%
11:00 +29°C° 0 mm 2 m/S 754 mmHg 73%
12:00 +30°C° 0 mm 2 m/S 753 mmHg 69%
13:00 +31°C° 0 mm 2 m/S 752 mmHg 64%
14:00 +31°C° 0.1 mm 2 m/S 752 mmHg 66%
15:00 +31°C° 0.1 mm 2 m/S 751 mmHg 68%
16:00 +31°C° 0.1 mm 2 m/S 751 mmHg 71%
17:00 +30°C° 0.5 mm 2 m/S 751 mmHg 75%
18:00 +29°C° 0.5 mm 2 m/S 751 mmHg 79%
19:00 +28°C° 0.5 mm 2 m/S 752 mmHg 84%
20:00 +27°C° 0.4 mm 2 m/S 752 mmHg 87%
21:00 +26°C° 0.4 mm 2 m/S 753 mmHg 91%
22:00 +25°C° 0.4 mm 2 m/S 753 mmHg 94%
23:00 +25°C° 0 mm 2 m/S 753 mmHg 95%

übermorgen, 25 Juni, Freitag

Zeit Temperatur Niederschläge Wind Luftdruck Luftfeuchtigkeit
00:00 +25°C° 0 mm 2 m/S 753 mmHg 95%
01:00 +25°C° 0 mm 2 m/S 753 mmHg 95%
02:00 +25°C° 0.2 mm 2 m/S 753 mmHg 95%
03:00 +25°C° 0.2 mm 2 m/S 753 mmHg 96%
04:00 +24°C° 0.2 mm 2 m/S 752 mmHg 96%
05:00 +24°C° 1.1 mm 1 m/S 753 mmHg 96%
06:00 +25°C° 1.1 mm 1 m/S 753 mmHg 96%
07:00 +23°C° 1.1 mm 0 m/S 753 mmHg 96%
08:00 +25°C° 0.4 mm 1 m/S 754 mmHg 94%
09:00 +26°C° 0.4 mm 1 m/S 754 mmHg 92%
10:00 +26°C° 0.4 mm 2 m/S 754 mmHg 90%
11:00 +27°C° 0.4 mm 2 m/S 754 mmHg 87%
12:00 +28°C° 0.4 mm 2 m/S 754 mmHg 84%
13:00 +28°C° 0.4 mm 2 m/S 753 mmHg 80%
14:00 +28°C° 0.1 mm 2 m/S 753 mmHg 81%
15:00 +28°C° 0.1 mm 2 m/S 752 mmHg 83%
16:00 +28°C° 0.1 mm 2 m/S 752 mmHg 84%
17:00 +27°C° 0 mm 2 m/S 752 mmHg 86%
18:00 +26°C° 0 mm 2 m/S 752 mmHg 88%
19:00 +26°C° 0 mm 1 m/S 752 mmHg 90%
20:00 +26°C° 0 mm 1 m/S 752 mmHg 92%
21:00 +25°C° 0 mm 1 m/S 753 mmHg 93%
22:00 +25°C° 0 mm 1 m/S 753 mmHg 95%
23:00 +25°C° 0 mm 1 m/S 753 mmHg 95%

26 Juni, Samstag

Zeit Temperatur Niederschläge Wind Luftdruck Luftfeuchtigkeit
00:00 +24°C° 0 mm 1 m/S 753 mmHg 95%
01:00 +24°C° 0 mm 1 m/S 752 mmHg 96%
02:00 +24°C° 0 mm 1 m/S 752 mmHg 96%
03:00 +24°C° 0 mm 1 m/S 752 mmHg 95%
04:00 +24°C° 0 mm 1 m/S 752 mmHg 95%
05:00 +24°C° 0 mm 1 m/S 752 mmHg 94%
06:00 +24°C° 0 mm 1 m/S 753 mmHg 93%
07:00 +24°C° 0 mm 1 m/S 753 mmHg 92%
08:00 +25°C° 0 mm 1 m/S 753 mmHg 91%
09:00 +25°C° 0 mm 1 m/S 754 mmHg 89%
10:00 +26°C° 0 mm 1 m/S 754 mmHg 88%
11:00 +27°C° 0 mm 1 m/S 754 mmHg 83%
12:00 +28°C° 0 mm 1 m/S 753 mmHg 78%
13:00 +29°C° 0 mm 1 m/S 753 mmHg 74%
14:00 +30°C° 0 mm 1 m/S 752 mmHg 71%
15:00 +31°C° 0 mm 2 m/S 751 mmHg 68%
16:00 +31°C° 0 mm 2 m/S 751 mmHg 65%
17:00 +30°C° 0 mm 2 m/S 751 mmHg 70%
18:00 +29°C° 0 mm 2 m/S 751 mmHg 76%
19:00 +28°C° 0 mm 2 m/S 751 mmHg 81%
20:00 +27°C° 0 mm 2 m/S 751 mmHg 82%
21:00 +27°C° 0 mm 2 m/S 752 mmHg 84%
22:00 +26°C° 0 mm 2 m/S 752 mmHg 85%
23:00 +26°C° 0 mm 2 m/S 752 mmHg 87%

27 Juni, Sonntag

Zeit Temperatur Niederschläge Wind Luftdruck Luftfeuchtigkeit
00:00 +26°C° 0 mm 2 m/S 752 mmHg 90%
01:00 +25°C° 0 mm 2 m/S 752 mmHg 93%
02:00 +25°C° 0 mm 2 m/S 752 mmHg 94%
03:00 +25°C° 0 mm 2 m/S 752 mmHg 95%
04:00 +25°C° 0 mm 2 m/S 752 mmHg 96%
05:00 +25°C° 0.3 mm 2 m/S 752 mmHg 96%
06:00 +25°C° 0.3 mm 2 m/S 753 mmHg 96%
07:00 +25°C° 0.3 mm 2 m/S 753 mmHg 95%
08:00 +26°C° 2.6 mm 2 m/S 753 mmHg 93%
09:00 +26°C° 2.6 mm 3 m/S 754 mmHg 90%
10:00 +27°C° 2.6 mm 3 m/S 754 mmHg 88%
11:00 +26°C° 2.3 mm 3 m/S 754 mmHg 90%
12:00 +26°C° 2.3 mm 3 m/S 753 mmHg 92%
13:00 +25°C° 2.3 mm 3 m/S 753 mmHg 95%
14:00 +25°C° 0.1 mm 3 m/S 752 mmHg 94%
15:00 +25°C° 0.1 mm 3 m/S 751 mmHg 93%
16:00 +26°C° 0.1 mm 2 m/S 750 mmHg 92%
17:00 +26°C° 0 mm 2 m/S 751 mmHg 92%
18:00 +26°C° 0 mm 2 m/S 751 mmHg 93%
19:00 +26°C° 0 mm 2 m/S 752 mmHg 93%
20:00 +25°C° 0.1 mm 3 m/S 753 mmHg 94%
21:00 +25°C° 0.1 mm 3 m/S 753 mmHg 94%
22:00 +25°C° 0.1 mm 3 m/S 754 mmHg 95%
23:00 +25°C° 0 mm 3 m/S 753 mmHg 95%

28 Juni, Montag

Zeit Temperatur Niederschläge Wind Luftdruck Luftfeuchtigkeit
00:00 +25°C° 0 mm 3 m/S 753 mmHg 94%
01:00 +25°C° 0 mm 4 m/S 753 mmHg 94%
02:00 +25°C° 0 mm 3 m/S 753 mmHg 95%
03:00 +24°C° 0 mm 2 m/S 753 mmHg 96%
04:00 +24°C° 0 mm 1 m/S 753 mmHg 96%
05:00 +24°C° 0 mm 1 m/S 753 mmHg 96%
06:00 +24°C° 0 mm 2 m/S 754 mmHg 96%
07:00 +24°C° 0 mm 2 m/S 754 mmHg 96%
08:00 +25°C° 0 mm 2 m/S 755 mmHg 92%
09:00 +26°C° 0 mm 2 m/S 755 mmHg 89%
10:00 +26°C° 0 mm 2 m/S 755 mmHg 85%
11:00 +27°C° 0 mm 2 m/S 755 mmHg 83%
12:00 +28°C° 0 mm 3 m/S 755 mmHg 80%
13:00 +29°C° 0 mm 3 m/S 755 mmHg 77%
14:00 +29°C° 0 mm 3 m/S 754 mmHg 76%
15:00 +29°C° 0 mm 3 m/S 754 mmHg 75%
16:00 +29°C° 0 mm 3 m/S 753 mmHg 74%
17:00 +28°C° 0 mm 3 m/S 753 mmHg 79%
18:00 +27°C° 0 mm 3 m/S 754 mmHg 83%
19:00 +26°C° 0 mm 3 m/S 754 mmHg 88%
20:00 +25°C° 0 mm 3 m/S 754 mmHg 90%
21:00 +25°C° 0 mm 3 m/S 755 mmHg 91%
22:00 +25°C° 0 mm 3 m/S 755 mmHg 93%
23:00 +24°C° 0 mm 2 m/S 755 mmHg 94%
Mehr zeigen

Wir brauchen deine Erlaubnis

Meteoprog und unser Service Anbieter werden persönliche Daten aufbewahren, so wie Cookies, Geräte Bezeichnung oder ähnliche Technologien von deinem Gerät und Prozess, so wie Persönliche Daten Inhalte und Werbungen, genauso wie social Media und den Verkehr zu analysieren.

  • Aufbewahrung und/oder Zugang zu deiner Geräte Informationen.

    Cookies, Geräte Bezeichnung oder andere Informationen, können aufbewahrt oder Zugang zu deinem Gerät erhalten, für den Grund, der oben angegeben wird.

  • Personalisierte Werbung und Inhalte, Messungen, Einblick in das Publikum und Produkt Entwicklung.

    Werbungen und Inhalte können personalisiert werden, basierend auf ein Profil. Mehr Daten können besser personalisierte Werbungen und Inhalte hinzufügen. Werbung und Inhalte können gezeigt und gemessen werden. Einblicke über das Publikum, welche die Werbung gesehen haben und den Inhalt, können abgeleitet werden. So wie Daten können genutzt werden, um es zu verbessern oder die Benutzer Erfahrung zu verbessern das System und die Software.

Wenn du “Ich stimme zu” klickst, erlaubst du uns, die Cookies zu benutzen die Geräte Bezeichnung, den Web oder ähnliche Technologien zu benutzen. Deine Settings, können in deinem Gerät bei deinem Browser geändert werden.

Für den bestimmten Zweck, berechtigten Interessen beruhen darauf, mehr als auf den Inhalt. Du kannst mehr darüber in unseren Privaten und Cookie Politik lesen.